This demonstration page uses our WeatherBlox Daily Observations layout. Learn more.

Left ArrowRight Arrow

34.74481, -87.66753

Hourly Observations for May 13, 2021

Temp ( °F °C ) Dew Point ( °F °C ) Humidity (%) Winds ( mph kmh ) Pressure ( in mb ) Visibility ( mi km ) Precip ( " mm )
12:53 am 00:53 Cloudy 60 15.6 37 2.8 42 42 NE 6 9 30.23 1024 10 16 0.00 0.00
1:53 am 01:53 Cloudy 59 15 37 2.8 44 44 NE 8 13 30.23 1024 10 16 0.00 0.00
2:53 am 02:53 Clear 55 12.8 38 3.3 53 53 ENE 5 7 30.23 1024 10 16 0.00 0.00
3:53 am 03:53 Clear 53 11.7 40 4.4 61 61 NE 3 6 30.24 1024 10 16 0.00 0.00
4:53 am 04:53 Partly Cloudy 52 11.1 41 5 66 66 Calm 30.24 1024 10 16 0.00 0.00
5:01 am 05:01 Mostly Cloudy 53 11.7 42 5.6 66 66 Calm 30.25 1025 10 16 0.00 0.00
5:48 am 05:48 Partly Cloudy 52 11 43 6 72 72 Calm 30.27 1025 10 16 0.00 0.00
5:53 am 05:53 Mostly Sunny 52 11.1 43 6.1 72 72 Calm 30.25 1024 10 16 0.00 0.00
6:53 am 06:53 Mostly Cloudy 54 12.2 45 7.2 72 72 Calm 30.28 1025 10 16 0.00 0.00
7:53 am 07:53 Cloudy 57 13.9 46 7.8 67 67 Calm 30.29 1026 10 16 0.00 0.00
8:53 am 08:53 Sunny 61 16.1 45 7.2 56 56 S 3 6 30.28 1026 10 16 0.00 0.00
9:53 am 09:53 Sunny 64 17.8 45 7.2 50 50 Calm 30.29 1026 10 16 0.00 0.00
10:53 am 10:53 Mostly Sunny 66 18.9 45 7.2 47 47 VRB 5 7 30.29 1026 10 16 0.00 0.00
11:53 am 11:53 Mostly Sunny 68 20 44 6.7 42 42 Calm 30.28 1026 10 16 0.00 0.00
12:53 pm 12:53 Sunny 70 21.1 41 5 35 35 VRB 3 6 30.26 1025 10 16 0.00 0.00
1:53 pm 13:53 Mostly Sunny 71 21.7 43 6.1 36 36 Calm 30.24 1024 10 16 0.00 0.00
2:53 pm 14:53 Mostly Sunny 72 22.2 43 6.1 35 35 VRB 3 6 30.22 1023 10 16 0.00 0.00
3:53 pm 15:53 Cloudy 71 21.7 43 6.1 36 36 NNW 7 11 30.21 1023 10 16 0.00 0.00
4:53 pm 16:53 Mostly Sunny 71 21.7 45 7.2 39 39 NNW 5 7 30.20 1023 9 14 0.00 0.00
5:53 pm 17:53 Mostly Sunny 72 22.2 43 6.1 35 35 NNE 6 9 30.19 1022 10 16 0.00 0.00
6:53 pm 18:53 undefined 69 20.6 43 6.1 39 39 undefined N/A 30.19 1023 N/A 0.00 0.00
7:53 pm 19:53 undefined N/A N/A N/A undefined N/A N/A N/A 0.00 0.00
8:53 pm 20:53 undefined N/A N/A N/A undefined N/A N/A N/A 0.00 0.00
9:53 pm 21:53 undefined N/A N/A N/A undefined N/A N/A N/A 0.00 0.00
10:53 pm 22:53 undefined N/A N/A N/A undefined N/A N/A N/A 0.00 0.00
11:53 pm 23:53 undefined N/A N/A N/A undefined N/A N/A N/A 0.00 0.00

Powered by AerisWeather